When you browse on this site, cookies collect data to enhance your experience and personalize the content and advertising you see.
Visit our Privacy Policy to learn more. By continuing to use the site, you agree to this use of cookies and data.
  • In Hungary
  • List of Countries
  • For 7 days
  • Water Temperature
  • Satellite Maps
  • Weather Map
  • News
  • Weather Widgets
  • user-avatar
    Login

    Hourly Weather Winchester

    Today, 23 January, Wednesday

    Time Temperature Precipitation Wind Pressure Humidity
    00:00 -2°C° 0 mm 4 mps 742 mmHg 89%
    01:00 -2°C° 0 mm 4 mps 742 mmHg 89%
    02:00 -2°C° 0 mm 4 mps 742 mmHg 89%
    03:00 -2°C° 0 mm 4 mps 742 mmHg 89%
    04:00 -2°C° 0 mm 4 mps 743 mmHg 89%
    05:00 -2°C° 0 mm 5 mps 743 mmHg 88%
    06:00 -2°C° 0 mm 5 mps 743 mmHg 87%
    07:00 -2°C° 0 mm 5 mps 744 mmHg 86%
    08:00 -2°C° 0 mm 5 mps 745 mmHg 85%
    09:00 -2°C° 0 mm 5 mps 745 mmHg 84%
    10:00 -1°C° 0 mm 5 mps 746 mmHg 78%
    11:00 0°C° 0 mm 5 mps 746 mmHg 73%
    12:00 +1°C° 0 mm 5 mps 747 mmHg 68%
    13:00 +2°C° 0 mm 5 mps 747 mmHg 68%
    14:00 +2°C° 0 mm 5 mps 747 mmHg 68%
    15:00 +3°C° 0 mm 4 mps 748 mmHg 68%
    16:00 +1°C° 0 mm 4 mps 748 mmHg 74%
    17:00 0°C° 0 mm 3 mps 748 mmHg 81%
    18:00 -1°C° 0 mm 2 mps 749 mmHg 87%
    19:00 -1°C° 0 mm 2 mps 749 mmHg 88%
    20:00 -1°C° 0 mm 2 mps 750 mmHg 88%
    21:00 -1°C° 0 mm 2 mps 750 mmHg 88%
    22:00 -1°C° 0 mm 2 mps 750 mmHg 88%
    23:00 -1°C° 0 mm 2 mps 751 mmHg 88%

    Tomorrow, 24 January, Thursday

    Time Temperature Precipitation Wind Pressure Humidity
    00:00 -1°C° 0 mm 2 mps 751 mmHg 88%
    01:00 -1°C° 0 mm 2 mps 751 mmHg 88%
    02:00 -1°C° 0 mm 2 mps 751 mmHg 89%
    03:00 -1°C° 0 mm 2 mps 751 mmHg 90%
    04:00 -1°C° 0 mm 2 mps 751 mmHg 90%
    05:00 -1°C° 0 mm 2 mps 751 mmHg 90%
    06:00 -1°C° 0 mm 2 mps 751 mmHg 90%
    07:00 0°C° 0.3 mm 3 mps 751 mmHg 90%
    08:00 +1°C° 0.3 mm 3 mps 751 mmHg 90%
    09:00 +1°C° 0.3 mm 4 mps 751 mmHg 91%
    10:00 +3°C° 0.1 mm 4 mps 751 mmHg 87%
    11:00 +5°C° 0.1 mm 4 mps 751 mmHg 84%
    12:00 +6°C° 0.1 mm 5 mps 751 mmHg 81%
    13:00 +6°C° 0 mm 5 mps 751 mmHg 79%
    14:00 +5°C° 0 mm 4 mps 751 mmHg 77%
    15:00 +5°C° 0 mm 4 mps 752 mmHg 75%
    16:00 +3°C° 0 mm 4 mps 752 mmHg 80%
    17:00 +1°C° 0 mm 4 mps 753 mmHg 84%
    18:00 +1°C° 0 mm 3 mps 753 mmHg 89%
    19:00 0°C° 0 mm 3 mps 754 mmHg 90%
    20:00 0°C° 0 mm 3 mps 754 mmHg 91%
    21:00 -1°C° 0 mm 3 mps 755 mmHg 92%
    22:00 -1°C° 0 mm 3 mps 755 mmHg 93%
    23:00 -1°C° 0 mm 3 mps 756 mmHg 94%

    Day after tomorrow, 25 January, Friday

    Time Temperature Precipitation Wind Pressure Humidity
    00:00 -1°C° 0 mm 3 mps 756 mmHg 95%
    01:00 -2°C° 0 mm 3 mps 756 mmHg 94%
    02:00 -2°C° 0 mm 3 mps 757 mmHg 94%
    03:00 -2°C° 0 mm 2 mps 757 mmHg 94%
    04:00 -2°C° 0 mm 2 mps 757 mmHg 93%
    05:00 -2°C° 0 mm 2 mps 758 mmHg 93%
    06:00 -2°C° 0 mm 2 mps 758 mmHg 92%
    07:00 +1°C° 0 mm 1 mps 759 mmHg 89%
    08:00 +2°C° 0 mm 1 mps 759 mmHg 86%
    09:00 +2°C° 0 mm 1 mps 760 mmHg 84%
    10:00 +3°C° 0 mm 1 mps 760 mmHg 79%
    11:00 +3°C° 0 mm 0 mps 760 mmHg 74%
    12:00 +4°C° 0 mm 0 mps 761 mmHg 69%
    13:00 +5°C° 0 mm 0 mps 761 mmHg 70%
    14:00 +6°C° 0 mm 1 mps 761 mmHg 72%
    15:00 +6°C° 0 mm 1 mps 761 mmHg 73%
    16:00 +5°C° 0 mm 1 mps 761 mmHg 75%
    17:00 +5°C° 0 mm 1 mps 761 mmHg 78%
    18:00 +3°C° 0 mm 2 mps 761 mmHg 81%
    19:00 +4°C° 0 mm 2 mps 761 mmHg 82%
    20:00 +4°C° 0 mm 2 mps 761 mmHg 84%
    21:00 +4°C° 0 mm 2 mps 761 mmHg 86%
    22:00 +3°C° 0.1 mm 3 mps 761 mmHg 88%
    23:00 +3°C° 0.1 mm 3 mps 761 mmHg 89%

    26 January, Saturday

    Time Temperature Precipitation Wind Pressure Humidity
    00:00 +4°C° 0.1 mm 3 mps 761 mmHg 91%
    01:00 +4°C° 0.1 mm 4 mps 760 mmHg 92%
    02:00 +5°C° 0.1 mm 4 mps 760 mmHg 93%
    03:00 +5°C° 0.1 mm 4 mps 759 mmHg 94%
    04:00 +5°C° 0.1 mm 4 mps 759 mmHg 95%
    05:00 +6°C° 0.1 mm 4 mps 758 mmHg 96%
    06:00 +6°C° 0.1 mm 4 mps 757 mmHg 96%
    07:00 +6°C° 0.1 mm 4 mps 757 mmHg 94%
    08:00 +6°C° 0.1 mm 4 mps 756 mmHg 92%
    09:00 +5°C° 0.1 mm 4 mps 756 mmHg 89%
    10:00 +6°C° 0 mm 5 mps 755 mmHg 88%
    11:00 +7°C° 0 mm 6 mps 754 mmHg 86%
    12:00 +6°C° 0 mm 7 mps 753 mmHg 84%
    13:00 +6°C° 0.4 mm 7 mps 752 mmHg 83%
    14:00 +7°C° 0.4 mm 8 mps 750 mmHg 82%
    15:00 +7°C° 0.4 mm 8 mps 749 mmHg 80%
    16:00 +6°C° 0 mm 8 mps 749 mmHg 81%
    17:00 +6°C° 0 mm 8 mps 749 mmHg 81%
    18:00 +5°C° 0 mm 9 mps 749 mmHg 81%
    19:00 +4°C° 0 mm 8 mps 749 mmHg 79%
    20:00 +2°C° 0 mm 8 mps 750 mmHg 77%
    21:00 +2°C° 0 mm 7 mps 751 mmHg 75%
    22:00 +2°C° 0 mm 7 mps 751 mmHg 75%
    23:00 0°C° 0 mm 8 mps 751 mmHg 76%

    27 January, Sunday

    Time Temperature Precipitation Wind Pressure Humidity
    00:00 0°C° 0 mm 8 mps 751 mmHg 76%
    01:00 0°C° 0 mm 7 mps 752 mmHg 77%
    02:00 0°C° 0 mm 7 mps 752 mmHg 79%
    03:00 0°C° 0 mm 7 mps 752 mmHg 80%
    04:00 +1°C° 0 mm 6 mps 752 mmHg 82%
    05:00 -1°C° 0 mm 6 mps 753 mmHg 83%
    06:00 0°C° 0 mm 5 mps 753 mmHg 84%
    07:00 0°C° 0 mm 5 mps 754 mmHg 84%
    08:00 0°C° 0 mm 5 mps 754 mmHg 84%
    09:00 0°C° 0 mm 5 mps 755 mmHg 84%
    10:00 +1°C° 0 mm 6 mps 755 mmHg 76%
    11:00 +2°C° 0 mm 7 mps 755 mmHg 68%
    12:00 +3°C° 0 mm 7 mps 755 mmHg 60%
    13:00 +3°C° 0 mm 7 mps 755 mmHg 60%
    14:00 +3°C° 0 mm 7 mps 755 mmHg 59%
    15:00 +2°C° 0 mm 6 mps 755 mmHg 59%
    16:00 +1°C° 0 mm 6 mps 755 mmHg 63%
    17:00 0°C° 0 mm 5 mps 756 mmHg 68%
    18:00 -1°C° 0 mm 4 mps 756 mmHg 72%
    19:00 -1°C° 0 mm 4 mps 756 mmHg 73%
    20:00 -2°C° 0 mm 4 mps 757 mmHg 74%
    21:00 -2°C° 0 mm 4 mps 757 mmHg 74%
    22:00 -2°C° 0 mm 4 mps 757 mmHg 74%
    23:00 -2°C° 0 mm 4 mps 758 mmHg 74%

    28 January, Monday

    Time Temperature Precipitation Wind Pressure Humidity
    00:00 -3°C° 0 mm 4 mps 758 mmHg 74%
    01:00 -3°C° 0 mm 4 mps 758 mmHg 75%
    02:00 -3°C° 0 mm 4 mps 758 mmHg 75%
    03:00 -3°C° 0 mm 4 mps 758 mmHg 76%
    04:00 -3°C° 0 mm 4 mps 758 mmHg 75%
    05:00 -3°C° 0 mm 4 mps 759 mmHg 74%
    06:00 -4°C° 0 mm 5 mps 759 mmHg 73%
    07:00 -2°C° 0 mm 5 mps 759 mmHg 70%
    08:00 -2°C° 0 mm 5 mps 760 mmHg 67%
    09:00 -2°C° 0 mm 5 mps 760 mmHg 64%
    10:00 0°C° 0 mm 5 mps 761 mmHg 59%
    11:00 +1°C° 0 mm 5 mps 761 mmHg 54%
    12:00 +2°C° 0 mm 5 mps 761 mmHg 49%
    13:00 +2°C° 0 mm 5 mps 762 mmHg 50%
    14:00 +2°C° 0 mm 5 mps 762 mmHg 51%
    15:00 +2°C° 0 mm 5 mps 762 mmHg 52%
    16:00 +1°C° 0 mm 4 mps 762 mmHg 58%
    17:00 +1°C° 0 mm 3 mps 763 mmHg 64%
    18:00 +1°C° 0 mm 2 mps 763 mmHg 70%
    19:00 -1°C° 0 mm 2 mps 763 mmHg 71%
    20:00 -1°C° 0 mm 2 mps 764 mmHg 72%
    21:00 +1°C° 0 mm 1 mps 764 mmHg 73%
    22:00 +1°C° 0 mm 1 mps 764 mmHg 74%
    23:00 +1°C° 0 mm 1 mps 764 mmHg 75%
    Show more